Regional Weather Roundup
Issued by NWS Northern Indiana

Home | Current Version | Previous Version | Graphics & Text | Print | Product List | Glossary On
Versions: 1 2 3 4 5 6 7 8 9 10 11 12 13 14 15 16 17 18 19 20 21 22 23 24 25 26 27 28 29 30 31 32 33 34 35 36 37 38 39 40 41 42 43 44 45 46 47 48 49 50
000
ASUS43 KIWX 181610
RWRIWX

KIWX WEATHER ROUNDUP
NATIONAL WEATHER SERVICE NORTHERN INDIANA
1100 AM EST SUN FEB 18 2018

NOTE: "FAIR" INDICATES FEW OR NO CLOUDS BELOW 12,000 FEET WITH NO
SIGNIFICANT WEATHER AND/OR OBSTRUCTIONS TO VISIBILITY.

* THESE STATIONS ARE NOT UNDER NWS QUALITY CONTROL. THEY ALSO MAY NOT
  REPORT WEATHER SUCH AS PRECIPITATION OR FOG.

INZ001>027-181700-
NORTHERN INDIANA

CITY           SKY/WX    TMP DP  RH WIND       PRES   REMARKS
GARY*          PTSUNNY   27  25  93 SE10      30.31R WCI  17
VALPARAISO     CLOUDY    27  24  89 S10       30.31R FOG     WCI  17
MICHIGAN CITY* CLOUDY    28  27  93 S12       30.31R WCI  18
LAPORTE*       CLOUDY   N/A N/A N/A S10       30.31R
KNOX*          CLOUDY    28  25  86 S15       30.29R WCI  17
SOUTH BEND     PTSUNNY   26  22  84 S14       30.29S WCI  14
ELKHART*       CLOUDY    28  23  80 S13       30.28S WCI  18
GOSHEN         PTSUNNY   29  23  78 S13       30.29S HAZE    WCI  19
MONTICELLO*    CLOUDY    30  26  84 SE6G17    30.29F WCI  24
LOGANSPORT*    CLOUDY    30  27  86 S14       30.33S WCI  20
ROCHESTER*     CLOUDY    32  28  86 S13G18    30.31S WCI  22
WARSAW*        CLOUDY    30  27  86 S7        30.30S WCI  23
AUBURN*        CLOUDY    30  27  86 S7        30.32F WCI  23
FORT WAYNE     CLOUDY    30  25  81 S14       30.34S WCI  19
HUNTINGTON*    CLOUDY    30  25  82 S14       30.33S WCI  19
PERU/GRISSOM   CLOUDY    30  30 100 S16G23    30.31F WCI  18
MARION*        CLOUDY    29  26  87 S15       30.34S WCI  18

$$
INZ028>050-181700-
CENTRAL INDIANA

CITY           SKY/WX    TMP DP  RH WIND       PRES   REMARKS
LAFAYETTE      PTSUNNY   31  28  89 SE15      30.30F WCI  20
KOKOMO*        CLOUDY    31  27  85 S18       30.33F WCI  19
MUNCIE*        CLOUDY    32  26  78 SE7       30.34S WCI  26
INDIANAPOLIS   CLOUDY    32  28  85 SE17      30.34S WCI  21

$$
MIZ043>046-050>051-056>058-064>065-071>073-077>080-181700-
SOUTHWEST LOWER MICHIGAN

CITY           SKY/WX    TMP DP  RH WIND       PRES   REMARKS
BATTLE CREEK   FAIR      31  25  78 S8        30.27F WCI  23
BENTON HARBOR  FAIR      30  23  75 S13       30.27R HAZE    WCI  20
COLDWATER*     FAIR      31  24  75 S10       30.28F WCI  22
HILLSDALE*     FAIR      32  23  69 SE9       30.28S WCI  24
HOLLAND        FAIR      34  26  72 S9        30.25R WCI  27
GRAND RAPIDS   PTSUNNY   33  24  69 S10       30.26R WCI  25
KALAMAZOO      FAIR      31  22  69 S8        30.28S WCI  23
STURGIS*       PTSUNNY   31  24  77 S10       30.28S WCI  22
THREE RIVERS*  FAIR      30  24  79 S10       30.29R WCI  21

$$
OHZ001>008-015>018-024>025-181700-
NORTHWEST OHIO

CITY           SKY/WX    TMP DP  RH WIND       PRES   REMARKS
WAUSEON*       CLOUDY    32  30  93 S10       30.32F WCI  24
DEFIANCE       CLOUDY    29  24  82 S9        30.34F WCI  20
FINDLAY        CLOUDY    32  25  75 S8        30.34F WCI  25
TOLEDO EXPRESS PTSUNNY   32  26  78 S8        30.34F WCI  25
TOLEDO METCALF CLOUDY    32  25  75 SW9       30.36F WCI  24
LIMA           CLOUDY    30  25  81 S8        30.34F WCI  22

$$
AND FOR LAKE MICHIGAN COASTAL AND OPEN LAKE BUOY OBSERVATIONS

STATION/POSITION TEMP    WIND        PRES    VSBY  WAVE
                 AIR SEA DIR/SP/G                  HT/PER
                 (F)     (DEG/KT/KT) (MB)    (MI)  (FT/S)
CALUMET HARBOR    27     190/  8/ 12 1024.9R
MICHIGAN CITY     25     140/ 14/ 17   N/A
BURNS HARBOR      25     180/ 11/ 21 1026.1R
SAINT JOSEPH      31     200/  4/  7 1025.1

$$
&&




USA.gov is the U.S. government's official web portal to all federal, state and local government web resources and services.